Home   Weather   Bury   Past weeks

Flag for United Kingdom Past Weather in Bury, England, United Kingdom — Yesterday and Last 2 Weeks

Now
57 °F

Light rain. Partly cloudy.


Feels Like: 54 °F
Forecast: 48 / 57 °F
Wind: 16 mph from West

Location: Manchester Airport

Current Time: Sep 29, 2016 at 6:07:35 AM

Latest Report: Sep 29, 2016 at 5:20 AM


Visibility: N/A

Pressure: 29.83 "Hg

Humidity: 94%

Dew Point: 55 °F

Location of BuryLocation

Past Weather in Bury — Graph

°F

Bury Temperature Yesterday

Maximum temperature yesterday: 73 °F (at 2:20 PM)
Minimum temperature yesterday: 54 °F (at 1:50 AM)
Average temperature yesterday: 62 °F

High & Low Weather Summary for the Past Weeks

 TemperatureHumidityPressure
High79 °F (Sep 14, 2:50 PM)100% (Sep 15, 1:50 AM)30.24 "Hg (Sep 15, 1:50 AM)
Low45 °F (Sep 18, 5:50 AM)52% (Sep 22, 3:20 PM)29.68 "Hg (Sep 25, 1:50 AM)
Average59 °F82%30.03 "Hg
* Reported Sep 14 4:20 AM — Sep 29 4:50 AM, Bury, Weather by CustomWeather, © 2016

Note: Actual official high and low records may vary slightly from our data, if they occured in-between our weather recording intervals... More about our weather records

Advertising

Bury Weather History for the Previous 24 Hours

Scroll right to see more
 ConditionsComfort  
Time TempWeatherWind HumidityBarometerVisibility
4:50 AM
Thu, Sep 29
59 °FOvercast.12 mph100%29.83 "HgN/A
4:20 AM61 °FHeavy rain. Overcast.9 mph94%29.83 "Hg2 mi
3:50 AM61 °FLight rain. Partly cloudy.10 mph94%29.83 "HgN/A
3:20 AM61 °FRain. Mostly cloudy.18 mph94%29.86 "Hg4 mi
2:50 AM61 °FRain. Partly cloudy.16 mph94%29.86 "Hg6 mi
2:20 AM61 °FLight rain. Partly cloudy.18 mph94%29.86 "HgN/A
1:50 AM63 °FLight rain. Passing clouds.21 mph88%29.86 "HgN/A
1:20 AM64 °FPassing clouds.20 mph78%29.89 "HgN/A
12:50 AM64 °FMostly cloudy.23 mph78%29.89 "HgN/A
12:20 AM64 °FPassing clouds.18 mph78%29.89 "HgN/A
11:50 PM
Wed, Sep 28
64 °FPassing clouds.15 mph83%29.92 "HgN/A
11:20 PM64 °FPassing clouds.18 mph83%29.92 "HgN/A
10:50 PM64 °FClear.21 mph83%29.92 "Hg10 mi
10:20 PM64 °FClear.18 mph83%29.92 "Hg10 mi
9:50 PM64 °FClear.18 mph83%29.95 "Hg10 mi
9:20 PM66 °FPassing clouds.18 mph78%29.95 "HgN/A
8:50 PM66 °FPassing clouds.14 mph83%29.98 "HgN/A
8:20 PM66 °FPassing clouds.16 mph83%29.98 "HgN/A
7:50 PM66 °FPassing clouds.14 mph88%29.98 "HgN/A
7:20 PM68 °FPassing clouds.21 mph83%29.98 "HgN/A
6:50 PM68 °FPassing clouds.18 mph83%29.98 "HgN/A
6:20 PM68 °FPassing clouds.22 mph83%30.01 "HgN/A
5:50 PM68 °FPassing clouds.16 mph83%30.01 "HgN/A
5:20 PM70 °FScattered clouds.12 mph78%30.04 "HgN/A
4:50 PM70 °FPartly sunny.9 mph83%30.04 "HgN/A
4:20 PM70 °FScattered clouds.9 mph83%30.07 "HgN/A
3:50 PM72 °FScattered clouds.15 mph78%30.07 "HgN/A
3:20 PM72 °FScattered clouds.13 mph78%30.07 "HgN/A
2:50 PM72 °FScattered clouds.15 mph73%30.09 "HgN/A
2:20 PM73 °FPassing clouds.13 mph74%30.09 "HgN/A
1:50 PM72 °FPassing clouds.14 mph73%30.09 "HgN/A
1:20 PM70 °FScattered clouds.15 mph78%30.12 "HgN/A
12:50 PM68 °FPartly sunny.13 mph78%30.12 "HgN/A
12:20 PM64 °FPartly sunny.7 mph83%30.12 "HgN/A
11:50 AM63 °FBroken clouds.12 mph83%30.12 "HgN/A
11:20 AM61 °FPartly sunny.10 mph88%30.15 "HgN/A
10:50 AM59 °FPartly sunny.9 mph88%30.15 "HgN/A
10:20 AM59 °FPartly sunny.10 mph88%30.15 "HgN/A
9:50 AM59 °FPartly sunny.10 mph82%30.18 "HgN/A
9:20 AM59 °FPartly sunny.10 mph82%30.18 "HgN/A
8:50 AM57 °FPartly sunny.9 mph88%30.18 "HgN/A
8:20 AM57 °FPartly sunny.9 mph82%30.15 "HgN/A
7:50 AM57 °FBroken clouds.9 mph82%30.15 "HgN/A
7:20 AM57 °FPartly sunny.7 mph82%30.15 "HgN/A
6:50 AM57 °FPartly cloudy.9 mph82%30.15 "HgN/A
6:20 AM55 °FPassing clouds.7 mph88%30.15 "HgN/A
Weather by CustomWeather, © 2016

See weather overviewHow to use our weather pages